sat.trackr.live / text

‹ back to catalog

STARLINK-36523

NORAD 67460 · 2026-008R

PAYLOAD ACTIVE UNKNOWN

§ Identity

Operator
Country
US
Launch date
2026-01-14
Launch site
AFETR
Launch vehicle
Mass (kg)
RCS (m²)

Purposes: comms

External: N2YO · Heavens-Above · Gunter

§ Orbital elements

Epoch: 2026-09-19T22:03:18.515520Z

Period
94.27 min
Inclination
43.0021°
Eccentricity
0.0001176
Mean motion
15.27584635 rev/d
Perigee alt
482.2 km
Apogee alt
483.8 km
Semi-major
6,861.2 km
B*
1.6013e-4
RAAN
188.6173°
Arg perigee
264.9005°
Mean anomaly
95.1713°
Rev number
3,927

§ Raw data

STARLINK-365231 67460U 26008R   26262.91896430  .00004148  00000+0  16013-3 0  99972 67460  43.0021 188.6173 0001176 264.9005  95.1713 15.27584635 39273

JSON: /api/v1/satellites/67460 · /tle

For live sub-satellite position, see the globe view (requires WebGL).

§ Visibility from observer

Set your observer location to see the next 7 days of passes ≥ 10°. The values pass through the URL so the page stays shareable.

No JS? Fill the form by hand. The geolocation button needs JavaScript.